Location: Shepherdstown, WV
(39.4326°N, 77.8042°W)
Time: 08:58:40
(UTC-04:00)

Tiangong - Pass Details

Date: 01 July 2021
Orbit: 374 x 386 km, 41.5° (Epoch: 25 July)

Event Time Altitude Azimuth Distance (km) Brightness Sun altitude
Exits shadow 05:02:29 - 256° (WSW) 1,441 3.4 -8.0°
Reaches altitude 10° 05:02:43 10° 253° (WSW) 1,381 3.3 -8.0°
Maximum altitude 05:04:42 16° 213° (SSW) 1,087 2.8 -7.7°
Drops below altitude 10° 05:06:42 10° 173° (S) 1,381 3.6 -7.4°
Sets 05:09:18 0° 150° (SSE) 2,232 4.9 -7.0°
